GUSTAVUS current weather conditions

sailwx.info

Wind from 350 at 4 knots

Air temperature -2.2° C
Visibility: greater than 8.7 NM
Dewpoint -8.3° C

Last reported at 2017-Nov-18 23:56 UTC.
Time now 2017-Nov-19 01:17 UTC

Location: N 58°25' W 135°43'.
View on Google Maps.

See reports from other nearby stations

  
Tides and Currents Weather Stations Pressure Air Temp Water Temp Dewpoint Dewpoint Depression Visibility Wind Speed Wind Dir Waves Ship Positions
date/time (UTC)wind fromknots sea level pressurealtimeterstation pressurevisibilityair tempwater tempwave heightnotes
2017-Nov-18 23:56 350 4 8.7-2.2
2017-Nov-18 22:56 320 2 8.7-1.7
2017-Nov-18 21:56 8.7-1.1
2017-Nov-18 20:56 090 2 8.7 1.1
2017-Nov-18 19:56 110 5 7.8-1.7
2017-Nov-18 18:56 330 4 8.7-3.3
2017-Nov-18 17:56 350 2 8.7-3.9
2017-Nov-18 16:56 320 5 8.7-5.0
2017-Nov-18 15:56 020 5 8.7-4.4
2017-Nov-18 14:56 360 4 8.7-5.0
2017-Nov-18 13:56 8.7-4.4
2017-Nov-18 12:56 8.7-5.6
2017-Nov-18 11:56 330 2 8.7-4.4
2017-Nov-18 10:56 300 2 8.7-3.3
2017-Nov-18 09:56 8.7-2.8
2017-Nov-18 08:56 8.7-1.7
2017-Nov-18 07:56 330 4 8.7-1.1
2017-Nov-18 07:04 6.1-1.0 Light snow.
2017-Nov-18 06:56 290 2 3.5-0.6 Light snow. Mist.
2017-Nov-18 06:54 280 2 2.6-1.0 Light snow. Mist.
2017-Nov-18 06:47 2.2-1.0 Light snow. Mist.
2017-Nov-18 06:29 310 4 1.5-1.0 Light snow. Mist.
2017-Nov-18 05:56 300 5 3.5-1.1 Light snow. Mist.
2017-Nov-18 05:09 330 5 4.3-1.0 Light snow. Mist.
2017-Nov-18 04:56 350 6 6.1-0.6 Light snow.
2017-Nov-18 03:56 350 5 8.7-0.6
2017-Nov-18 02:56 320 7 7.8-0.6 Light snow.
2017-Nov-18 02:23 310 11 2.6-1.0 Light snow. Mist.
2017-Nov-18 02:05 320 11 6.9-1.0 Light snow.
2017-Nov-18 01:56 310 8 7.8-0.6 Light snow.
2017-Nov-18 00:56 320 5 8.7-1.1
2017-Nov-17 23:56 320 9 3.5-1.1 Light snow. Mist.
2017-Nov-17 23:18 320 7 2.6-2.0 Light snow. Mist.
2017-Nov-17 23:11 320 7 1.5-2.0 Light snow. Mist.
2017-Nov-17 23:04 320 6 1.1-2.0 Light snow. Mist.
2017-Nov-17 22:56 320 7 0.7-1.7 Light snow. Mist.
2017-Nov-17 22:46 320 7 0.7-2.0 Light snow. Mist.
2017-Nov-17 22:26 330 8 0.9-2.0 Light snow. Mist.
2017-Nov-17 22:18 330 8 1.1-2.0 Light snow. Mist.
2017-Nov-17 22:05 330 8 2.2-2.0 Light snow. Mist.
2017-Nov-17 21:56 330 7 1.7-1.7 Light snow. Mist.
2017-Nov-17 21:51 330 7 1.7-2.0 Light snow. Mist.
2017-Nov-17 21:36 330 8 2.2-2.0 Light snow. Mist.
2017-Nov-17 20:56 330 8 6.9-1.7 Light snow.
2017-Nov-17 20:33 330 8 4.3-2.0 Light snow. Mist.
2017-Nov-17 20:21 330 7 1.7-2.0 Light snow. Mist.
2017-Nov-17 20:09 330 7 1.1-2.0 Light snow. Mist.
2017-Nov-17 19:56 340 7 0.9-1.7 Light snow. Mist.
2017-Nov-17 19:36 330 8 0.7-2.0 Light snow. Mist.
2017-Nov-17 19:32 330 7 0.9-2.0 Light snow. Mist.
2017-Nov-17 19:21 330 6 2.2-2.0 Light snow. Mist.
2017-Nov-17 18:56 340 7 5.2-2.2 Light snow. Mist.
2017-Nov-17 18:43 340 6 5.2-2.0 Light snow. Mist.
2017-Nov-17 18:26 330 6 2.2-2.0 Light snow. Mist.
2017-Nov-17 17:56 330 5 6.9-2.2 Light snow.
2017-Nov-17 16:56 340 5 6.1-2.2 Light snow.
2017-Nov-17 16:47 340 6 4.3-2.0 Light snow. Mist.
2017-Nov-17 16:38 330 6 2.2-2.0 Light snow. Mist.
2017-Nov-17 16:13 350 6 3.5-2.0 Light snow. Mist.
2017-Nov-17 15:56 350 5 3.5-2.2 Light snow. Mist.
2017-Nov-17 14:56 340 4 7.8-1.7 Light snow.
2017-Nov-17 13:56 320 6 7.8-2.2 Light snow.
2017-Nov-17 12:56 330 5 7.8-1.7 Light snow.
2017-Nov-17 11:56 170 4 7.8-1.1 Light snow.
2017-Nov-17 10:56 150 6 7.8-1.1 Light snow.
2017-Nov-17 09:56 140 9 4.3-1.7 Light snow. Mist.
2017-Nov-17 09:45 140 9 3.5-2.0 Light snow. Mist.
2017-Nov-17 09:38 140 7 3.5-2.0 Light snow. Mist.
2017-Nov-17 09:07 150 8 2.2-2.0 Light snow. Mist.
2017-Nov-17 08:56 140 8 gusting 14 1.5-1.7 Light snow. Mist.
2017-Nov-17 08:43 140 7 1.5-2.0 Light snow. Mist.
2017-Nov-17 08:34 130 8 1.7-2.0 Light snow. Mist.
2017-Nov-17 07:56 140 13 3.5-1.7 Light snow. Mist.
2017-Nov-17 07:16 130 13 2.6-2.0 Light snow. Mist.
2017-Nov-17 06:56 130 17 2.2-1.7 Light snow. Mist.
2017-Nov-17 06:51 130 13 2.2-2.0 Light snow. Mist.
2017-Nov-17 06:44 130 12 2.2-2.0 Light snow. Mist.
2017-Nov-17 06:15 120 8 2.6-2.0 Light snow. Mist.
2017-Nov-17 05:56 120 5 2.2-1.7 Light snow. Mist.
2017-Nov-17 05:16 150 8 gusting 14 3.5-1.0 Light snow.
2017-Nov-17 05:09 130 12 4.3-1.0 Light snow.
2017-Nov-17 04:56 150 9 6.9-0.6 Light snow.
2017-Nov-17 03:56 130 9 gusting 15 8.7-0.6 Light snow.
2017-Nov-17 02:56 150 6 8.7-0.0
2017-Nov-17 01:56 130 7 8.7-0.6